Time,TemperatureF,DewpointF,PressureIn,WindDirection,WindDirectionDegrees,WindSpeedMPH,WindSpeedGustMPH,Humidity,HourlyPrecipIn,Conditions,Clouds,dailyrainin,SolarRadiationWatts/m^2,SoftwareType,DateUTC
2013-02-16 00:02:00,39.0,32.0,-100.00,WSW,245,5.0,20.0,75,0.00,,,0.01,0.000000,,2013-02-16 05:02:00,
2013-02-16 00:32:00,38.0,22.0,-100.00,SSW,205,6.0,23.0,53,0.00,,,0.01,0.000000,,2013-02-16 05:32:00,
2013-02-16 01:32:00,38.0,25.0,-100.00,West,267,6.0,15.0,59,0.00,,,0.01,0.000000,,2013-02-16 06:32:00,
2013-02-16 01:42:00,38.0,25.0,-100.00,West,267,6.0,15.0,59,0.00,,,0.01,0.000000,,2013-02-16 06:42:00,
2013-02-16 01:52:00,38.0,25.0,-100.00,West,267,6.0,15.0,59,0.00,,,0.01,0.000000,,2013-02-16 06:52:00,
2013-02-16 02:02:00,38.0,25.0,-100.00,West,267,6.0,15.0,59,0.00,,,0.01,0.000000,,2013-02-16 07:02:00,
2013-02-16 02:32:00,37.0,25.0,-100.00,WSW,244,5.0,19.0,62,0.00,,,0.01,0.000000,,2013-02-16 07:32:00,
2013-02-16 02:42:00,37.0,25.0,-100.00,WSW,244,5.0,19.0,62,0.00,,,0.01,0.000000,,2013-02-16 07:42:00,
2013-02-16 02:53:00,37.0,25.0,-100.00,WSW,244,5.0,19.0,62,0.00,,,0.01,0.000000,,2013-02-16 07:53:00,
2013-02-16 03:01:00,37.0,25.0,-100.00,WSW,244,5.0,19.0,62,0.00,,,0.01,0.000000,,2013-02-16 08:01:00,
2013-02-16 03:32:00,36.0,26.0,-100.00,North,351,6.0,17.0,66,0.00,,,0.01,0.000000,,2013-02-16 08:32:00,
2013-02-16 03:42:00,36.0,26.0,-100.00,North,351,6.0,17.0,66,0.00,,,0.01,0.000000,,2013-02-16 08:42:00,
2013-02-16 03:52:00,36.0,26.0,-100.00,North,351,6.0,17.0,66,0.00,,,0.01,0.000000,,2013-02-16 08:52:00,
2013-02-16 04:02:00,36.0,26.0,-100.00,North,351,6.0,17.0,66,0.00,,,0.01,0.000000,,2013-02-16 09:02:00,
2013-02-16 05:32:00,33.0,25.0,-100.00,ENE,73,3.0,11.0,71,-99.99,,,0.01,0.000000,,2013-02-16 10:32:00,
2013-02-16 05:42:00,33.0,25.0,-100.00,ENE,73,3.0,11.0,71,-99.99,,,0.01,0.000000,,2013-02-16 10:42:00,
2013-02-16 05:52:00,33.0,25.0,-100.00,ENE,73,3.0,11.0,71,-99.99,,,0.01,0.000000,,2013-02-16 10:52:00,
2013-02-16 06:02:00,33.0,25.0,-100.00,ENE,73,3.0,11.0,71,-99.99,,,0.01,0.000000,,2013-02-16 11:02:00,
2013-02-16 06:32:00,33.0,25.0,-100.00,NW,326,6.0,13.0,71,0.00,,,0.01,0.000000,,2013-02-16 11:32:00,
2013-02-16 06:42:00,33.0,25.0,-100.00,NW,326,6.0,13.0,71,0.00,,,0.01,0.000000,,2013-02-16 11:42:00,
2013-02-16 06:52:00,33.0,25.0,-100.00,NW,326,6.0,13.0,71,0.00,,,0.01,0.000000,,2013-02-16 11:52:00,
2013-02-16 07:02:00,33.0,25.0,-100.00,NW,326,6.0,13.0,71,0.00,,,0.01,0.000000,,2013-02-16 12:02:00,
2013-02-16 07:32:00,32.0,26.0,-100.00,WNW,292,4.0,11.0,77,0.00,,,0.01,0.000000,,2013-02-16 12:32:00,
2013-02-16 07:42:00,32.0,26.0,-100.00,WNW,292,4.0,11.0,77,0.00,,,0.01,0.000000,,2013-02-16 12:42:00,
2013-02-16 07:52:00,32.0,26.0,-100.00,WNW,292,4.0,11.0,77,0.00,,,0.01,0.000000,,2013-02-16 12:52:00,
2013-02-16 08:02:00,32.0,26.0,-100.00,WNW,292,4.0,11.0,77,0.00,,,0.01,0.000000,,2013-02-16 13:02:00,
2013-02-16 09:32:00,32.0,24.0,-100.00,North,357,5.0,13.0,73,-99.99,,,0.01,88.000000,,2013-02-16 14:32:00,
2013-02-16 09:42:00,32.0,24.0,-100.00,North,357,5.0,13.0,73,-99.99,,,0.01,88.000000,,2013-02-16 14:42:00,
2013-02-16 09:52:00,32.0,24.0,-100.00,North,357,5.0,13.0,73,-99.99,,,0.01,88.000000,,2013-02-16 14:52:00,
2013-02-16 10:02:00,32.0,24.0,-100.00,North,357,5.0,13.0,73,-99.99,,,0.01,88.000000,,2013-02-16 15:02:00,
2013-02-16 10:32:00,33.0,24.0,-100.00,NNE,23,8.0,15.0,69,0.00,,,0.01,253.000000,,2013-02-16 15:32:00,
2013-02-16 10:42:00,33.0,24.0,-100.00,NNE,23,8.0,15.0,69,0.00,,,0.01,253.000000,,2013-02-16 15:42:00,
2013-02-16 10:52:00,33.0,24.0,-100.00,NNE,23,8.0,15.0,69,0.00,,,0.01,253.000000,,2013-02-16 15:52:00,
2013-02-16 11:02:00,33.0,24.0,-100.00,NNE,23,8.0,15.0,69,0.00,,,0.01,253.000000,,2013-02-16 16:02:00,
2013-02-16 11:32:00,35.0,21.0,-100.00,NNE,25,8.0,17.0,56,0.00,,,0.01,657.000000,,2013-02-16 16:32:00,
2013-02-16 11:42:00,35.0,21.0,-100.00,NNE,25,8.0,17.0,56,0.00,,,0.01,657.000000,,2013-02-16 16:42:00,
2013-02-16 11:52:00,35.0,21.0,-100.00,NNE,25,8.0,17.0,56,0.00,,,0.01,657.000000,,2013-02-16 16:52:00,
2013-02-16 12:01:00,35.0,21.0,-100.00,NNE,25,8.0,17.0,56,0.00,,,0.01,657.000000,,2013-02-16 17:01:00,
2013-02-16 12:32:00,35.0,13.0,-100.00,NNE,24,7.0,20.0,40,0.00,,,0.01,755.000000,,2013-02-16 17:32:00,
2013-02-16 13:33:00,36.0,15.0,-100.00,NNW,336,8.0,25.0,41,0.00,,,0.01,753.000000,,2013-02-16 18:33:00,
2013-02-16 13:42:00,36.0,15.0,-100.00,NNW,336,8.0,25.0,41,0.00,,,0.01,753.000000,,2013-02-16 18:42:00,
2013-02-16 13:52:00,36.0,15.0,-100.00,NNW,336,8.0,25.0,41,0.00,,,0.01,753.000000,,2013-02-16 18:52:00,
2013-02-16 14:02:00,36.0,15.0,-100.00,NNW,336,8.0,25.0,41,0.00,,,0.01,753.000000,,2013-02-16 19:02:00,
2013-02-16 14:32:00,33.0,8.0,-100.00,NNE,27,9.0,22.0,34,0.00,,,0.01,580.000000,,2013-02-16 19:32:00,
2013-02-16 15:32:00,35.0,9.0,-100.00,North,1,9.0,29.0,33,0.00,,,0.01,633.000000,,2013-02-16 20:32:00,
2013-02-16 15:42:00,35.0,9.0,-100.00,North,1,9.0,29.0,33,0.00,,,0.01,633.000000,,2013-02-16 20:42:00,
2013-02-16 15:52:00,35.0,9.0,-100.00,North,1,9.0,29.0,33,0.00,,,0.01,633.000000,,2013-02-16 20:52:00,
2013-02-16 16:02:00,35.0,9.0,-100.00,North,1,9.0,29.0,33,0.00,,,0.01,633.000000,,2013-02-16 21:02:00,
2013-02-16 16:32:00,32.0,8.0,-100.00,North,3,8.0,23.0,36,0.00,,,0.01,268.000000,,2013-02-16 21:32:00,
2013-02-16 16:42:00,32.0,8.0,-100.00,North,3,8.0,23.0,36,0.00,,,0.01,268.000000,,2013-02-16 21:42:00,
2013-02-16 16:52:00,32.0,8.0,-100.00,North,3,8.0,23.0,36,0.00,,,0.01,268.000000,,2013-02-16 21:52:00,
2013-02-16 17:01:00,32.0,8.0,-100.00,North,3,8.0,23.0,36,0.00,,,0.01,268.000000,,2013-02-16 22:01:00,
2013-02-16 17:32:00,32.0,8.0,-100.00,NW,304,9.0,24.0,36,0.00,,,0.01,289.000000,,2013-02-16 22:32:00,
2013-02-16 18:02:00,32.0,8.0,-100.00,NW,304,9.0,24.0,36,0.00,,,0.01,289.000000,,2013-02-16 23:02:00,
2013-02-16 18:32:00,30.0,8.0,-100.00,NNE,22,8.0,22.0,39,0.00,,,0.01,47.000000,,2013-02-16 23:32:00,
2013-02-16 18:42:00,30.0,8.0,-100.00,NNE,22,8.0,22.0,39,0.00,,,0.01,47.000000,,2013-02-16 23:42:00,
2013-02-16 18:52:00,30.0,8.0,-100.00,NNE,22,8.0,22.0,39,0.00,,,0.01,47.000000,,2013-02-16 23:52:00,
2013-02-16 19:32:00,28.0,7.0,-100.00,NNE,21,9.0,18.0,41,0.00,,,0.00,3.000000,,2013-02-17 00:32:00,
2013-02-16 21:32:00,27.0,14.0,-100.00,NNE,13,6.0,19.0,57,-99.99,,,0.00,0.000000,,2013-02-17 02:32:00,
2013-02-16 21:42:00,27.0,14.0,-100.00,NNE,13,6.0,19.0,57,-99.99,,,0.00,0.000000,,2013-02-17 02:42:00,
2013-02-16 21:52:00,27.0,14.0,-100.00,NNE,13,6.0,19.0,57,-99.99,,,0.00,0.000000,,2013-02-17 02:52:00,
2013-02-16 22:02:00,27.0,14.0,-100.00,NNE,13,6.0,19.0,57,-99.99,,,0.00,0.000000,,2013-02-17 03:02:00,
2013-02-16 22:32:00,26.0,11.0,-100.00,North,5,6.0,14.0,52,0.00,,,0.00,0.000000,,2013-02-17 03:32:00,
2013-02-16 22:42:00,26.0,11.0,-100.00,North,5,6.0,14.0,52,0.00,,,0.00,0.000000,,2013-02-17 03:42:00,
2013-02-16 22:52:00,26.0,11.0,-100.00,North,5,6.0,14.0,52,0.00,,,0.00,0.000000,,2013-02-17 03:52:00,
2013-02-16 23:01:00,26.0,11.0,-100.00,North,5,6.0,14.0,52,0.00,,,0.00,0.000000,,2013-02-17 04:01:00,
2013-02-16 23:32:00,26.0,10.0,-100.00,NNE,13,6.0,16.0,51,0.00,,,0.00,0.000000,,2013-02-17 04:32:00,
2013-02-16 23:42:00,26.0,10.0,-100.00,NNE,13,6.0,16.0,51,0.00,,,0.00,0.000000,,2013-02-17 04:42:00,
2013-02-16 23:52:00,26.0,10.0,-100.00,NNE,13,6.0,16.0,51,0.00,,,0.00,0.000000,,2013-02-17 04:52:00,